{"data":{"norad_id":39011,"epoch":"2026-05-24T23:48:12.090240Z","epoch_age_seconds":82557,"freshness":"FRESH","line1":"1 39011U 12066A   26144.99180660 -.00000041  00000+0  47708-4 0  9990","line2":"2 39011  63.3550 349.7137 0433673  26.9609 335.3247 13.45514781663023","mean_motion":13.45514781,"eccentricity":0.0433673,"inclination_deg":63.355,"raan_deg":349.7137,"arg_perigee_deg":26.9609,"mean_anomaly_deg":335.3247,"bstar":4.7708e-5,"rev_number":66302,"period_min":107.02223567769,"perigee_km":764.9852247485,"apogee_km":1412.627573703,"semimajor_km":7466.9433992257,"source":"CELESTRAK","updated_at":"2026-05-25T13:37:55.331247Z"}}